[Date Prev][Date Next][Thread Prev][Thread Next] - [Date Index][Thread Index][Author Index]
2 Line ISS Keps 10-10
- Subject: [sarex] 2 Line ISS Keps 10-10
- From: "Dave Larsen PhD" <doc@xxxxxxxxxxx>
- Date: Wed, 10 Oct 2001 04:29:09 -0700
ISS
1 25544U 98067A 01283.23583971 .00068576 00000-0 77314-3 0 5782
2 25544 51.6385 229.7885 0007778 185.7644 325.9485 15.61851067165036
----
Via the sarex mailing list at AMSAT.ORG courtesy of AMSAT-NA.
To unsubscribe, send "unsubscribe sarex" to Majordomo@amsat.org
AMSAT Home